GW1404 Weather Reports


time (UTC)temp
F
wind
direction
speed
knots
gust
knots
rain 1hr
in
rain 24hr
in
rain mn
in
humidity
%
barometer
mb
20260506165044 59 112 2.6 6.1 0.00 0.00 0.00 90 1012.7
20260506164558 59 0 0.0 2.6 0.00 0.00 0.00 91 1013.4
20260506164043 58 0 0.0 16.5 0.00 0.00 0.00 92 1013.5
20260506163543 57 0 0.9 16.5 0.00 0.00 0.00 92 1012.3
20260506163052 57 82 12.2 16.5 0.00 0.00 0.00 91 1010.9
20260506162543 56 58 1.7 9.6 0.00 0.00 0.00 91 1013.7
20260506162046 56 50 5.2 13.0 0.00 0.00 0.00 92 1013.9
20260506161553 56 334 4.3 13.0 0.00 0.00 0.00 92 1014.5
20260506161043 56 26 8.7 13.0 0.00 0.00 0.00 93 1013.9
20260506160544 56 39 7.0 10.4 0.00 0.00 0.00 93 1014.4
20260506160059 56 34 3.5 10.4 0.00 0.00 0.00 93 1015.0
20260506155547 56 38 2.6 10.4 0.00 0.00 0.00 93 1015.7
20260506155043 56 5 3.5 13.0 0.00 0.00 0.00 93 1016.1
20260506154555 56 351 5.2 13.0 0.00 0.00 0.00 93 1015.8
20260506154044 56 344 6.1 13.0 0.00 0.00 0.00 93 1015.7
20260506153544 57 345 6.1 13.9 0.00 0.00 0.00 93 1015.4
20260506153111 57 9 8.7 16.5 0.00 0.00 0.00 93 1014.6
20260506152544 57 17 6.1 16.5 0.00 0.00 0.00 92 1014.7
20260506152042 57 89 8.7 16.5 0.00 0.00 0.00 91 1014.6
20260506151555 58 15 7.8 14.8 0.00 0.00 0.00 91 1014.4
20260506151046 58 24 7.0 17.4 0.00 0.00 0.00 91 1014.5
20260506150544 59 34 7.8 17.4 0.00 0.00 0.00 90 1014.3
20260506150100 59 360 9.6 16.5 0.00 0.00 0.00 90 1014.2
20260506145544 59 13 8.7 15.6 0.00 0.00 0.00 90 1013.7
20260506145043 59 5 7.8 15.6 0.00 0.00 0.00 90 1013.3
20260506144557 59 12 8.7 15.6 0.00 0.00 0.00 91 1013.2
20260506144044 60 24 7.0 13.9 0.00 0.00 0.00 91 1013.5
20260506143544 60 360 6.1 11.3 0.00 0.00 0.00 92 1013.3
20260506143054 60 20 7.0 14.8 0.00 0.00 0.00 91 1013.3
20260506142542 60 32 7.0 14.8 0.00 0.00 0.00 91 1013.3
20260506142044 61 15 7.0 14.8 0.00 0.00 0.00 92 1013.1
20260506141551 61 351 8.7 13.0 0.00 0.00 0.00 91 1013.1
20260506141043 61 11 6.1 11.3 0.00 0.00 0.00 92 1012.8
20260506140548 62 11 7.0 11.3 0.00 0.00 0.00 92 1012.5
20260506140053 62 31 6.1 12.2 0.00 0.00 0.00 92 1012.4
20260506135544 62 26 6.1 12.2 0.00 0.00 0.00 92 1012.3
20260506135042 62 355 7.8 13.0 0.00 0.00 0.00 92 1012.1
20260506134553 62 10 7.8 13.0 0.00 0.00 0.00 92 1012.1
20260506134046 62 49 7.8 13.9 0.00 0.00 0.00 92 1012.2
20260506133544 63 30 7.8 13.9 0.00 0.00 0.00 92 1012.1
20260506133054 63 19 8.7 13.9 0.00 0.00 0.00 92 1012.1
20260506132547 63 18 7.0 13.9 0.00 0.00 0.00 92 1011.9
20260506132047 63 32 7.8 12.2 0.00 0.00 0.00 92 1011.8
20260506131556 63 355 6.1 12.2 0.00 0.00 0.00 91 1011.7
20260506131044 64 11 6.1 13.0 0.00 0.00 0.00 91 1011.6
20260506130544 64 360 6.1 13.0 0.00 0.00 0.00 91 1011.5
20260506130057 64 5 6.1 13.0 0.00 0.00 0.00 91 1011.5
20260506125543 64 5 6.1 11.3 0.00 0.00 0.00 91 1011.3
20260506125042 65 5 7.0 11.3 0.00 0.00 0.00 92 1011.3
20260506124550 65 22 6.1 12.2 0.00 0.00 0.00 92 1011.3
20260506124044 65 5 7.8 12.2 0.00 0.00 0.00 92 1011.1
20260506123543 66 34 4.3 9.6 0.00 0.00 0.00 91 1011.1
20260506123056 67 38 4.3 7.8 0.00 0.00 0.00 90 1011.2
20260506122542 69 32 2.6 10.4 0.00 0.00 0.00 91 1011.0
20260506122043 71 47 6.1 10.4 0.00 0.00 0.00 91 1010.8
20260506121555 73 19 1.7 2.6 0.00 0.00 0.00 94 1010.6
20260506121043 73 0 0.0 0.9 0.00 0.00 0.00 94 1010.4
20260506120543 73 0 0.0 0.9 0.00 0.00 0.00 94 1010.4
20260506120057 73 0 0.0 0.9 0.00 0.00 0.00 94 1010.3
20260506115543 73 0 0.0 0.9 0.00 0.00 0.00 94 1010.2
20260506115042 73 0 0.0 0.9 0.00 0.00 0.00 94 1010.3
20260506114601 73 0 0.0 0.9 0.00 0.00 0.00 94 1010.3
20260506114043 73 0 0.0 0.9 0.00 0.00 0.00 94 1010.3
20260506113542 73 0 0.0 0.0 0.00 0.00 0.00 94 1010.3
20260506113048 73 0 0.0 0.0 0.00 0.00 0.00 94 1010.4
20260506112544 73 0 0.0 1.7 0.00 0.00 0.00 94 1010.2
20260506112043 73 0 0.0 1.7 0.00 0.00 0.00 94 1010.3
20260506111557 73 0 0.0 1.7 0.00 0.00 0.00 94 1010.2
20260506111043 73 0 0.0 0.0 0.00 0.00 0.00 94 1010.2
20260506110544 73 0 0.0 0.0 0.00 0.00 0.00 94 1010.2
20260506110054 73 0 0.0 0.9 0.00 0.00 0.00 94 1010.3
20260506105547 73 0 0.0 0.9 0.00 0.00 0.00 94 1010.1
20260506105048 73 0 0.0 0.9 0.00 0.00 0.00 94 1010.3
20260506104559 73 0 0.0 1.7 0.00 0.00 0.00 94 1010.2
20260506104043 73 0 0.0 1.7 0.00 0.00 0.00 94 1010.1
20260506103542 73 0 0.0 1.7 0.00 0.00 0.00 94 1010.0
20260506103058 73 91 0.0 1.7 0.00 0.00 0.00 94 1009.9
20260506102543 73 91 0.0 1.7 0.00 0.00 0.00 94 1009.9
20260506102044 73 0 0.0 0.9 0.00 0.00 0.00 94 1010.0
20260506101550 73 0 0.0 0.9 0.00 0.00 0.00 94 1009.8
20260506101044 73 0 0.0 0.9 0.00 0.00 0.00 94 1009.6
20260506100546 73 0 0.0 0.9 0.00 0.00 0.00 94 1009.6
20260506100050 73 0 0.0 0.9 0.00 0.00 0.00 94 1009.6
20260506095543 73 0 0.0 0.9 0.00 0.00 0.00 94 1009.5
20260506095043 73 0 0.0 1.7 0.00 0.00 0.00 94 1009.5
20260506094554 73 0 0.0 1.7 0.00 0.00 0.00 93 1009.5
20260506094043 73 0 0.0 2.6 0.00 0.00 0.00 93 1009.4
20260506093543 73 0 0.0 2.6 0.00 0.00 0.00 93 1009.4
20260506093051 74 227 0.9 2.6 0.00 0.00 0.00 93 1009.2
20260506092544 74 227 0.9 4.3 0.00 0.00 0.00 93 1009.2
20260506092043 74 229 0.9 4.3 0.00 0.00 0.00 93 1009.0
20260506091555 74 210 1.7 3.5 0.00 0.00 0.00 92 1009.1
20260506091044 74 239 0.9 3.5 0.00 0.00 0.00 92 1009.1
20260506090546 74 191 1.7 3.5 0.00 0.00 0.00 92 1009.2
20260506090059 74 202 0.9 3.5 0.00 0.00 0.00 91 1009.3
20260506085544 74 213 1.7 3.5 0.00 0.00 0.00 91 1009.1
20260506085042 74 219 1.7 6.1 0.00 0.00 0.00 91 1009.2
20260506084550 74 217 2.6 6.1 0.00 0.00 0.00 91 1009.1
20260506084042 74 236 0.9 4.3 0.00 0.00 0.00 91 1009.1
20260506083542 74 228 0.9 5.2 0.00 0.00 0.00 91 1009.1
20260506083050 74 228 1.7 5.2 0.00 0.00 0.00 91 1009.1
20260506082543 74 220 2.6 5.2 0.00 0.00 0.00 91 1009.1
20260506082043 75 244 1.7 6.1 0.00 0.00 0.00 90 1009.1
20260506081549 75 247 3.5 9.6 0.00 0.00 0.00 90 1009.0
20260506081043 75 201 3.5 9.6 0.00 0.00 0.00 90 1009.0
20260506080546 75 228 2.6 8.7 0.00 0.00 0.00 90 1009.0
20260506073050 75 240 1.7 6.1 0.00 0.00 0.00 89 1009.5
20260506072542 75 209 1.7 6.1 0.00 0.00 0.00 89 1009.6
20260506072043 75 208 1.7 6.1 0.00 0.00 0.00 89 1009.6
20260506071603 75 196 3.5 7.0 0.00 0.00 0.00 89 1009.6
20260506071044 75 198 2.6 7.0 0.00 0.00 0.00 89 1009.6
20260506070542 75 192 3.5 6.1 0.00 0.00 0.00 89 1009.6
20260506062044 74 184 2.6 7.8 0.00 0.00 0.00 91 1009.2
20260506061549 74 240 2.6 7.8 0.00 0.00 0.00 91 1009.1
20260506061043 74 193 2.6 7.8 0.00 0.00 0.00 91 1009.1
20260506060543 74 209 2.6 7.0 0.00 0.00 0.00 91 1009.0
20260506051043 74 218 2.6 7.0 0.00 0.00 0.00 91 1008.9
20260506050543 74 247 2.6 7.0 0.00 0.00 0.00 91 1008.9
20260506050105 74 216 2.6 5.2 0.00 0.00 0.00 91 1008.8
20260506045042 74 5 0.9 4.3 0.00 0.00 0.00 90 1008.8
20260506044554 74 150 1.7 4.3 0.00 0.00 0.00 90 1009.0
20260506044042 74 214 0.0 7.0 0.00 0.00 0.00 90 1008.9
20260506043544 74 191 0.9 7.0 0.00 0.00 0.00 90 1009.0
20260506043051 74 217 2.6 6.1 0.00 0.00 0.00 90 1009.0
20260506042544 74 188 1.7 6.1 0.00 0.00 0.00 90 1008.8
20260506042045 74 203 1.7 7.8 0.00 0.00 0.00 90 1008.8
20260506041558 74 216 1.7 7.8 0.00 0.00 0.00 90 1008.7
20260506041044 74 253 1.7 6.1 0.00 0.00 0.00 90 1008.8
20260506040544 74 215 1.7 6.1 0.00 0.00 0.00 90 1008.7
20260506040056 74 207 1.7 6.1 0.00 0.00 0.00 90 1008.7
20260506035545 74 195 0.9 3.5 0.00 0.00 0.00 90 1008.6
20260506035045 75 205 0.9 4.3 0.00 0.00 0.00 90 1008.7
20260506034600 75 220 0.9 4.3 0.00 0.00 0.00 89 1008.6
20260506034045 75 208 1.7 5.2 0.00 0.00 0.00 89 1008.4
20260506033546 75 236 1.7 5.2 0.00 0.00 0.00 89 1008.3
20260506033053 75 200 1.7 6.1 0.00 0.00 0.00 89 1008.4
20260506032550 75 219 0.9 6.1 0.00 0.00 0.00 88 1008.3
20260506032049 75 217 1.7 5.2 0.00 0.00 0.00 88 1008.2
20260506031549 75 196 0.9 3.5 0.00 0.00 0.00 88 1008.2
20260506031047 75 179 1.7 3.5 0.00 0.00 0.00 88 1008.0
20260506030545 75 215 1.7 3.5 0.00 0.00 0.00 88 1007.9
20260506030050 75 207 0.9 3.5 0.00 0.00 0.00 87 1007.8
20260506025546 76 200 0.9 3.5 0.00 0.00 0.00 87 1007.7
20260506025044 76 211 0.9 3.5 0.00 0.00 0.00 87 1007.7
20260506024607 76 171 0.9 3.5 0.00 0.00 0.00 86 1007.5
20260506024045 76 0 0.9 1.7 0.00 0.00 0.00 86 1007.5
20260506023548 76 0 0.0 4.3 0.00 0.00 0.00 86 1007.3
20260506023056 76 229 0.9 4.3 0.00 0.00 0.00 86 1007.3
20260506022545 76 199 0.9 3.5 0.00 0.00 0.00 86 1007.2
20260506022045 76 224 0.9 3.5 0.00 0.00 0.00 86 1007.2
20260506021553 76 221 0.9 3.5 0.00 0.00 0.00 85 1007.2
20260506021044 76 223 0.9 3.5 0.00 0.00 0.00 85 1007.0
20260506020548 77 223 1.7 3.5 0.00 0.00 0.00 85 1007.0
20260506020052 77 221 0.9 4.3 0.00 0.00 0.00 84 1007.0
20260506015548 77 209 0.9 4.3 0.00 0.00 0.00 84 1006.9
20260506015042 77 200 0.9 4.3 0.00 0.00 0.00 84 1006.8
20260506014554 77 203 0.9 5.2 0.00 0.00 0.00 83 1006.6
20260506014047 77 216 1.7 5.2 0.00 0.00 0.00 83 1006.6
20260506013548 78 182 1.7 5.2 0.00 0.00 0.00 82 1006.5
20260506013104 78 216 1.7 5.2 0.00 0.00 0.00 82 1006.5
20260506012544 78 217 0.9 5.2 0.00 0.00 0.00 82 1006.6
20260506012045 78 206 0.0 6.1 0.00 0.00 0.00 81 1006.7
20260506011605 79 202 1.7 6.1 0.00 0.00 0.00 81 1006.6
20260506011045 79 233 2.6 7.0 0.00 0.00 0.00 81 1006.5
20260506010545 79 196 2.6 7.0 0.00 0.00 0.00 81 1006.4
20260506010055 79 234 2.6 5.2 0.00 0.00 0.00 80 1006.5
20260506005543 80 0 0.9 5.2 0.00 0.00 0.00 80 1006.4
20260506005045 80 0 0.9 5.2 0.00 0.00 0.00 79 1006.4
20260506004559 80 219 1.7 7.0 0.00 0.00 0.00 79 1006.5
20260506004045 80 238 2.6 7.0 0.00 0.00 0.00 79 1006.4
20260506003545 80 219 2.6 7.0 0.00 0.00 0.00 78 1006.4
20260506003050 81 196 2.6 6.1 0.00 0.00 0.00 78 1006.5
20260506002546 81 211 2.6 6.1 0.00 0.00 0.00 78 1006.5
20260506002045 81 193 1.7 7.8 0.00 0.00 0.00 78 1006.6
20260506001557 81 220 1.7 7.8 0.00 0.00 0.00 77 1006.6
20260506001045 81 204 3.5 7.8 0.00 0.00 0.00 77 1006.5
20260506000546 81 199 2.6 9.6 0.00 0.00 0.00 77 1006.5
20260506000101 81 225 2.6 9.6 0.00 0.00 0.00 77 1006.5
20260505235545 81 225 3.5 9.6 0.00 0.00 0.00 76 1006.5
20260505235045 81 182 3.5 9.6 0.00 0.00 0.00 76 1006.4
20260505234557 81 177 3.5 7.8 0.00 0.00 0.00 76 1006.6
20260505234044 81 251 2.6 7.0 0.00 0.00 0.00 76 1006.6
20260505233544 82 211 3.5 7.0 0.00 0.00 0.00 75 1006.4
20260505233059 82 209 3.5 7.8 0.00 0.00 0.00 76 1006.3
20260505232545 82 197 2.6 7.8 0.00 0.00 0.00 75 1006.2
20260505232047 81 207 2.6 7.0 0.00 0.00 0.00 76 1006.3
20260505231553 81 248 2.6 7.0 0.00 0.00 0.00 76 1006.2
20260505231047 82 201 1.7 7.0 0.00 0.00 0.00 76 1006.3
20260505230545 82 203 3.5 8.7 0.00 0.00 0.00 75 1006.2
20260505230104 82 206 3.5 8.7 0.00 0.00 0.00 74 1006.2
20260505225548 82 161 2.6 8.7 0.00 0.00 0.00 75 1006.3
20260505225045 82 202 4.3 8.7 0.00 0.00 0.00 74 1006.3
20260505224553 82 236 3.5 9.6 0.00 0.00 0.00 74 1006.2
20260505224046 82 172 4.3 9.6 0.00 0.00 0.00 74 1006.2
20260505223545 82 213 3.5 11.3 0.00 0.00 0.00 76 1006.2
20260505223108 82 227 3.5 11.3 0.00 0.00 0.00 75 1006.1
20260505222544 82 190 4.3 9.6 0.00 0.00 0.00 74 1006.1
20260505222045 82 202 4.3 10.4 0.00 0.00 0.00 74 1006.1
20260505221553 83 233 3.5 10.4 0.00 0.00 0.00 74 1006.1
20260505221047 83 202 4.3 7.8 0.00 0.00 0.00 73 1006.0
20260505220544 82 209 3.5 8.7 0.00 0.00 0.00 73 1006.0
20260505220053 83 188 3.5 9.6 0.00 0.00 0.00 73 1006.2
20260505215545 83 220 3.5 9.6 0.00 0.00 0.00 72 1006.3
20260505215044 83 278 3.5 8.7 0.00 0.00 0.00 72 1006.3
20260505214557 83 221 4.3 9.6 0.00 0.00 0.00 72 1006.4
20260505214045 83 244 4.3 11.3 0.00 0.00 0.00 72 1006.5
20260505213548 82 216 5.2 11.3 0.00 0.00 0.00 73 1006.5
20260505213100 83 231 5.2 10.4 0.00 0.00 0.00 72 1006.6
20260505212545 83 223 4.3 10.4 0.00 0.00 0.00 73 1006.7
20260505212045 83 217 4.3 9.6 0.00 0.00 0.00 72 1006.6
20260505211556 83 224 3.5 8.7 0.00 0.00 0.00 74 1006.6
20260505211045 83 204 3.5 10.4 0.00 0.00 0.00 74 1006.7
20260505210544 83 259 5.2 10.4 0.00 0.00 0.00 73 1006.7
20260505210057 83 225 3.5 8.7 0.00 0.00 0.00 74 1006.8
20260505205544 83 212 4.3 13.9 0.00 0.00 0.00 73 1006.8
20260505205045 82 217 6.1 13.9 0.00 0.00 0.00 74 1006.9
20260505204601 82 217 4.3 13.9 0.00 0.00 0.00 73 1006.9
20260505204044 82 254 6.1 12.2 0.00 0.00 0.00 73 1007.0
20260505203544 83 200 5.2 12.2 0.00 0.00 0.00 74 1007.1
20260505203054 83 221 5.2 12.2 0.00 0.00 0.00 72 1007.0
20260505202543 83 219 4.3 12.2 0.00 0.00 0.00 73 1007.0
20260505202044 82 215 5.2 13.9 0.00 0.00 0.00 73 1007.1
20260505201551 82 230 5.2 13.9 0.00 0.00 0.00 73 1007.3
20260505201045 83 235 6.1 10.4 0.00 0.00 0.00 71 1007.3
20260505200544 83 195 4.3 9.6 0.00 0.00 0.00 73 1007.3
20260505200051 83 192 5.2 9.6 0.00 0.00 0.00 72 1007.3
20260505195547 83 199 5.2 11.3 0.00 0.00 0.00 71 1007.3
20260505195044 83 190 5.2 11.3 0.00 0.00 0.00 71 1007.4
20260505194605 83 206 5.2 8.7 0.00 0.00 0.00 71 1007.4
20260505194044 84 208 2.6 9.6 0.00 0.00 0.00 71 1007.4
20260505193545 83 220 4.3 9.6 0.00 0.00 0.00 73 1007.6
20260505193049 83 197 3.5 8.7 0.00 0.00 0.00 72 1007.6
20260505192544 82 239 3.5 9.6 0.00 0.00 0.00 74 1007.8
20260505192044 82 238 5.2 9.6 0.00 0.00 0.00 72 1007.9
20260505191559 82 221 4.3 7.8 0.00 0.00 0.00 72 1008.0
20260505191044 82 222 3.5 7.0 0.00 0.00 0.00 75 1007.9
20260505190543 81 188 3.5 9.6 0.00 0.00 0.00 75 1008.1
20260505190056 80 263 3.5 9.6 0.00 0.00 0.00 75 1008.2
20260505185549 80 218 4.3 9.6 0.00 0.00 0.00 74 1008.2
20260505185050 81 254 4.3 10.4 0.00 0.00 0.00 73 1008.4
20260505184553 81 219 5.2 13.0 0.00 0.00 0.00 73 1008.4
20260505184044 80 195 5.2 13.0 0.00 0.00 0.00 76 1008.5
20260505183548 81 197 4.3 10.4 0.00 0.00 0.00 76 1008.6
20260505183100 81 194 3.5 10.4 0.00 0.00 0.00 75 1008.5
20260505182544 79 216 6.1 9.6 0.00 0.00 0.00 76 1008.6
20260505182043 79 233 4.3 9.6 0.00 0.00 0.00 79 1008.8
20260505181553 78 229 5.2 9.6 0.00 0.00 0.00 78 1008.9
20260505181044 79 234 3.5 8.7 0.00 0.00 0.00 79 1008.9
20260505180543 78 265 4.3 10.4 0.00 0.00 0.00 79 1008.8
20260505180051 78 234 5.2 10.4 0.00 0.00 0.00 78 1008.8
20260505175543 78 231 4.3 9.6 0.00 0.00 0.00 80 1008.8
20260505175044 78 221 4.3 9.6 0.00 0.00 0.00 78 1009.0
20260505174558 78 234 5.2 11.3 0.00 0.00 0.00 79 1009.0
20260505174044 77 221 5.2 11.3 0.00 0.00 0.00 80 1009.0
20260505173543 77 215 5.2 9.6 0.00 0.00 0.00 80 1009.1
20260505173049 77 224 5.2 11.3 0.00 0.00 0.00 79 1009.1
20260505172545 77 225 6.1 11.3 0.00 0.00 0.00 80 1009.0
20260505172043 77 209 5.2 9.6 0.00 0.00 0.00 80 1009.0
20260505171555 76 221 4.3 11.3 0.00 0.00 0.00 81 1009.0
20260505171047 76 259 6.1 12.2 0.00 0.00 0.00 82 1009.0
20260505170543 76 224 4.3 12.2 0.00 0.00 0.00 82 1009.2
20260505170049 76 208 4.3 8.7 0.00 0.00 0.00 82 1009.2
20260505165544 76 238 5.2 9.6 0.00 0.00 0.00 82 1009.1